www.pogodaiklimat.ru

Погода и климат >> Архив погоды >> Россия >> Свердловская область >> Камышлов


ПОГОДА в Камышлове

  • Прогноз погоды в Камышлове
  • Монитор погоды в Камышлове

АРХИВ ПОГОДЫ в Камышлове

Время (UTC), дата Ветер
(напр.,м/с)
 
Видим.   Явления Облачность Т
(С)
Тd
(С)
f
(%)
Тe
(С)
Тes
(С)
Комфортность P
(гПа)
Po
(гПа)
Тmin
(С)
Tmax
(С)
R
(мм)
R24
(мм)
S
(см)
21 17.05 З 3 4000 м 6/6 600 м
[Sc]
+4.0 -1.4 68 +1 +1 1007.4 991.9
00 18.05 З 2 20 км 3/0
[Ci fib]
+0.7 -2.1 82 -3 -3 1007.1 991.4
03 18.05 З 1 50 км 4/0
[Ac trans Ci fib]
+5.8 -0.1 66 +5 +9 1005.3 989.9 +0.7
06 18.05 ЮЗ 4 50 км в посл. час ливневой дождь 8/8 600 м
[Cb cap]
+7.7 +1.5 65 +5 +6 1003.2 987.9
09 18.05 З 5 50 км 8/8 600 м
[Cb cap]
+10.2 +0.1 49 +8 +9 1001.7 986.6
12 18.05 З 3 50 км {ливн. осадки} 8/5 600 м
[Cb cap Ci fib]
+10.2 +1.5 55 +8 +11 1001.2 986.1
15 18.05 Ю 2 50 км в посл. час ливневой дождь 8/8 600 м
[Cb cap]
+5.6 +2.7 82 +3 +3 1001.0 985.7 +11.5 2
18 18.05 штиль 0 4000 м {ливн. осадки} 8/6 600 м
[Cb cap Ci fib]
+4.3 +2.6 89 +3 +3 1001.1 985.7
21 18.05 З 1 500 м туман 9/0
[Ac trans]
+1.8 +0.5 91 0 0 999.9 984.3
00 19.05 СЗ 2 20 км {туман} 8/0
[Ac trans]
+2.0 +0.8 92 -1 -1 999.5 984.0
03 19.05 СЗ 2 4000 м слаб. ливневой дождь 9/8 600 м
[Cb cap Ac trans]
+3.6 +1.8 88 +1 +1 999.5 984.0 +1.7 0.8
06 19.05 З 3 20 км {ливн. осадки} 8/8 600 м
[Cb cap]
+7.8 +1.0 62 +5 +7 999.2 983.9
09 19.05 З 4
{11}
50 км в посл. час ливневой дождь 10/10 600 м
[Cb cap]
+6.7 +1.3 68 +3 +3 1000.3 985.0
12 19.05 СЗ 3 4000 м слаб. ливневой дождь 10/10 600 м
[Cb cap]
+6.2 +1.7 73 +3 +3 1001.9 986.6
15 19.05 СЗ 4 20 км {ливн. осадки} 8/4 600 м
[Cb cap Ci fib]
+4.9 +0.9 75 +1 +1 1003.0 987.6 +8.3 1
18 19.05 ЮЗ 2 4000 м {ливн. осадки} 10/10 600 м
[Cb cap]
+3.7 +0.6 80 +1 +1 1003.8 988.3
21 19.05 З 2 4000 м ясно +1.3 -0.7 87 -2 -2 1004.1 988.5
00 20.05 З 2 20 км ясно +0.3 -1.3 89 -3 -3 1004.7 989.0
03 20.05 З 3 50 км ясно +4.5 +0.7 76 +1 +5 1004.5 989.0 +0.2
06 20.05 З 4 50 км 8/3 600 м
[Cb cap Ac trans]
+9.6 +0.6 53 +7 +11 1003.9 988.7
09 20.05 СЗ 5-11
{11}
50 км {ливн. осадки} 8/4 600 м
[Cb cap Ac trans]
+9.2 -1.5 47 +6 +9 1004.3 989.1
12 20.05 З 4
{10}
50 км {ливн. осадки} 4/4 600 м
[Cb cap]
+10.6 -0.1 47 +9 +11 1005.0 989.8
15 20.05 С 2 50 км {ливн. осадки} 4/4 600 м
[Cb cap]
+6.8 -0.5 60 +5 +5 1005.8 990.4 +10.6
18 20.05 З 2 4000 м {ливн. осадки} 4/4 600 м
[Cb cap]
+3.8 +0.9 81 +1 +1 1006.7 991.2
21 20.05 З 1 4000 м 3/3 600 м
[Cb cap]
+2.2 -0.3 84 +1 +1 1006.9 991.3
00 21.05 З 2 20 км в посл. час ливневой дождь 8/8 600 м
[Cb cap]
+2.6 +1.0 89 -1 -1 1006.8 991.2
03 21.05 СЗ 3 50 км в посл. час ливневой дождь 9/9 600 м
[Cb cap]
+4.7 +1.7 81 +1 +2 1007.2 991.7 +1.3
06 21.05 СЗ 4 20 км {ливн. осадки} 9/9 600 м
[Cb cap]
+5.2 +0.5 72 +1 +2 1008.0 992.5 +4.4
09 21.05 С 3 50 км 8/6 600 м
[Cb cap Ac lent]
+6.7 +1.1 67 +4 +7 1009.0 993.6
12 21.05 С 4
{12}
50 км 8/6 600 м
[Cb cap Ac lent Ci fib]
+7.3 -0.9 56 +4 +6 1010.4 995.0
15 21.05 СЗ 3 20 км 10/10 600 м
[Cb cap]
+5.8 -1.1 61 +3 +3 1012.0 996.5 +8.7 0.3
18 21.05 СЗ 1 4000 м 8/8 600 м
[Cb cap]
+3.9 -0.2 75 +3 +3 1012.7 997.0
21 21.05 СЗ 1 4000 м 10/10 600 м
[Cb cap]
+3.2 -0.1 79 +2 +2 1012.8 997.1
00 22.05 З 1 20 км 10/10 600 м
[Sc]
+3.2 +0.2 81 +2 +2 1012.8 997.2
03 22.05 З 2 50 км 10/10 600 м
[Sc]
+4.8 +0.7 75 +2 +2 1013.1 997.5 +3.0
06 22.05 З 4 50 км 9/3 600 м
[Cu hum Ac trans]
+8.2 +0.3 57 +5 +8 1012.7 997.3 +4.7
09 22.05 СЗ 4 50 км 9/9 600 м
[Cb cap]
+11.5 -2.5 38 +10 +11 1012.0 996.8
12 22.05 СЗ 3 50 км 8/5 600 м
[Cb cap Ac trans]
+12.6 -1.8 37 +12 +13 1011.9 996.8
15 22.05 З 2 50 км 8/3 600 м
[Sc diur, vesp Ac trans]
+11.4 -1.6 40 +11 +11 1012.0 996.8 +13.6
18 22.05 Ю 1 4000 м 4/0
[Ac lent]
+6.9 -0.6 59 +6 +6 1012.4 996.9
21 22.05 Ю 1 4000 м 9/9 600 м
[Sc]
+6.1 -0.7 62 +5 +5 1011.8 996.3
00 23.05 ЮЗ 1 20 км 8/8 600 м
[Sc]
+5.6 +0.1 68 +5 +5 1011.0 995.5
03 23.05 ЮЗ 2 50 км 4/0
[Ac trans]
+9.9 +1.1 54 +9 +12 1010.3 995.0 +5.5
06 23.05 З 4 50 км 6/4 600 м
[Cu med, cong Ac trans]
+16.8 -3.9 24 +16 +21 1008.6 993.7
09 23.05 ЮЗ 6 50 км 8/8 600 м
[Cb cap]
+17.9 -3.1 24 +17 +18 1006.4 991.6
12 23.05 ЮЗ 3
{11}
50 км 8/8 600 м
[Cb cap]
+18.1 -3.6 23 +18 +19 1004.0 989.2
15 23.05 Ю 3 50 км 8/4 600 м
[Cb cap Ac trans Ci fib]
+17.4 -2.0 27 +17 +18 1000.9 986.1 +19.2
18 23.05 Ю 2 4000 м 8/8 600 м
[Sc]
+14.2 +3.5 49 +14 +14 999.4 984.6
21 23.05 ЮЗ 5 4000 м слаб. ливневой дождь 10/10 600 м
[Cb cap]
+13.3 +8.4 72 +11 +11 997.7 982.8
00 24.05 ЮЗ 6-11
{12}
20 км {ливн. осадки} 10/10 600 м
[Cb cap]
+13.6 +8.7 72 +11 +11 995.1 980.3
03 24.05 С 4
{12}
4000 м слаб. ливневой дождь 10/10 600 м
[Cb cap]
+9.6 +6.9 83 +7 +7 997.6 982.6 +9.6 1
06 24.05 С 4 50 км {ливн. осадки} 10/3 600 м
[Cb cap Ac trans]
+8.5 +4.9 78 +5 +8 999.8 984.6 +8.2
09 24.05 С 3 4000 м слаб. ливневой дождь 10/10 600 м
[Cb cap]
+7.3 +3.9 79 +4 +4 1001.7 986.4
12 24.05 штиль 0 4000 м слаб. ливневой дождь 10/10 600 м
[Cb cap]
+7.5 +3.6 76 +7 +7 1002.6 987.4
15 24.05 штиль 0 50 км {ливн. осадки} 8/8 600 м
[Cb cap]
+7.5 +3.5 76 +7 +7 1002.6 987.4 +9.6 2
18 24.05 С 3
{10}
4000 м {ливн. осадки} 8/8 600 м
[Cb cap]
+5.3 -1.6 61 +2 +2 1006.2 990.7

 

Местоположение метеостанции Камышлов (Свердловская область, Россия): широта 56.85 долгота 62.72 высота над уровнем моря 127 м.

В архиве по умолчанию представлена погода в Камышлове за последнюю неделю. Архивные данные за месяц целиком и за предыдущие месяцы, начиная с января 2011 года, Вы можете получить, выбрав интересующий диапазон дат из раскрывающегося списка и нажав кнопку "Ввод!".


*Определитесь, кто Вы:
робот инопланетянин человек

Внимание! Время в таблицах - всемирное. Для получения местного времени необходимо прибавить поправку, которая равна 5 ч.

Смотрите также архив погоды в соседних городах и на ближайших метеорологических станциях:

Погода в Бутке (Свердловская область, Россия) (66 км)
Погода в Далматово (Курганская область, Россия) (66 км)
Погода в Каменск-Уральском (Свердловская область, Россия) (70 км)
Погода в Артемовском (Свердловская область, Россия) (75 км)
Погода в Ирбите (Свердловская область, Россия) (87 км)
Погода в Верхнем Дуброво (Свердловская область, Россия) (101 км)
Погода в Шадринске (Курганская область, Россия) (104 км)
Погода в Тугулыме (Свердловская область, Россия) (121 км)
Погода в Сысерти (Свердловская область, Россия) (122 км)
Погода в Шатрово (Курганская область, Россия) (123 км)

Пояснения к столбцам:

Ветер - указаны скорость ветра в м/с - средняя за 10 мин, порывы в срок и между сроками (в фигурных скобках) и направление, откуда дует ветер: С - северный, СВ - северо-восточный, В - восточный, ЮВ - юго-восточный, Ю - южный, ЮЗ - юго-западный, З - западный, СЗ - северо-западный.
Видимость - горизонтальная дальность видимости в метрах или километрах. При видимости от 1 до 10 км при отсутствии осадков обычно наблюдается дымка, при ухудшении видимости до 1 км и менее - туман. В сухую погоду видимость может ухудшаться дымом, пылью или мглою.
Явления - указаны атмосферные явления, наблюдавшиеся в срок или в последний час перед сроком; фигурными скобками обозначены явления, наблюдавшиеся между сроками (за 1-3 часа до срока); квадратными скобками обозначены град или гололедные отложения с указанием их диаметра в мм.
Облачность - указаны через наклонную черту общая и нижняя облачность в баллах и высота нижней границы облаков в метрах; квадратными скобками обозначены формы облаков: Ci - перистые, Cs - перисто-слоистые, Cc - перисто-кучевые, Ac - высококучевые, As - высокослоистые, Sc - слоисто-кучевые, Ns - слоисто-дождевые, Cu - кучевые, Cb - кучево-дождевые. Подробнее классификацию облаков см. в Атласе облаков (PDF).
T - Температура воздуха - температура, измеренная на высоте 2 м над землей.
Td - Температура точки росы - температура, при понижении до которой содержащийся в воздухе водяной пар достигнет насыщения.
f - Относительная влажность воздуха - влажноcть воздуха, измеренная на высоте 2 м над землей.
Te - Эффективная температура - температура, которую ощущает одетый по сезону человек в тени. Характеристика душности погоды. При расчете учитывается влияние влажности воздуха и скорости ветра на теплоощущения человека.
Tes - Эффективная температура на солнце - температура, которую ощущает человек, с поправкой на солнечный нагрев. Характеристика знойности погоды. Зависит от высоты солнца над горизонтом, облачности и скорости ветра. Ночью, в пасмурную погоду, а также при ветре 12 м/с и более поправка равна нулю.
P - Атмосферное давление - приведенное к уровню моря атмосферное давление.
Po - Атмосферное давление - измеренное на уровне метеостанции атмосферное давление.
Tmin - Минимальная температура - минимум температуры воздуха на высоте 2 м над землей.
Tmax - Максимальная температура - максимум температуры воздуха на высоте 2 м над землей.
R - Количество осадков - Количество выпавших осадков за период времени, мм. При наведении курсора мыши на число - период времени, за который выпало указанное количество осадков.
R24 - Количество осадков - Количество выпавших осадков за 24 часа, мм.
S - Снежный покров - Высота снежного покрова, см. При наведении курсора мыши на число - состояние снежного покрова и степень покрытия местности в баллах.